Weather History for Colorado Springs, CO

Change the Weather History Date:

Saturday, January 19, 2013

  Actual Average Record
Temperature  
Mean Temperature 40 °F 31 °F  
Max Temperature 55 °F 43 °F 70 °F (1986)
Min Temperature 24 °F 18 °F -17 °F (1943)
Degree Days  
Heating Degree Days 25 34  
Month to date heating degree days 739 656  
Since 1 July heating degree days 3023 3228  
Cooling Degree Days 0 0  
Month to date cooling degree days 0 0  
Year to date cooling degree days 0 0  
Moisture  
Dew Point -1 °F    
Average Humidity 21    
Maximum Humidity 31    
Minimum Humidity 10    
Precipitation  
Precipitation 0.00 in 0.02 in 0.39 in (1990)
Month to date precipitation 0.01 0.19  
Year to date precipitation 0.01 0.19  
Snow  
Snow 0.00 in 0.20 in 5.70 in (1990)
Month to date snowfall 0.4 3.4  
Since 1 July snowfall 6.7 16.9  
Snow Depth 0.00 in    
Sea Level Pressure  
Sea Level Pressure 30.22 in    
Wind  
Wind Speed 10 mph (NE)    
Max Wind Speed 20 mph    
Max Gust Speed 22 mph    
Visibility 10 miles    
Events      
T = Trace of Precipitation, MM = Missing Value Source: NWS Daily Summary

Daily Weather History Graph

Daily Weather History Graph

Search for Another Location

Airport:

Trip Planner

Search our weather history database for the weather conditions in past years. The results will help you decide how hot, cold, wet, or windy it might be!

Date:

Astronomy

Jan. 19, 2013 Rise Set
Actual Time 7:13 AM MST 5:05 PM MST
Civil Twilight 6:44 AM MST 5:34 PM MST
Nautical Twilight 6:12 AM MST 6:07 PM MST
Astronomical Twilight 5:40 AM MST 6:39 PM MST
Moon 11:32 AM MST (1/19) 12:51 AM MST (1/19)
Length of Visible Light 10h 49m
Length of Day
9h 52m
First Quarter, 58% of the Moon is Illuminated
Jan 19
First Quarter
Jan 26
Full
Feb 3
Last Quarter
Feb 10
New
Feb 17
First Quarter

Hourly Weather History & Observations

Time (MST) Temp. Windchill Dew Point Humidity Pressure Visibility Wind Dir Wind Speed Gust Speed Precip Events Conditions
12:54 AM 30.0 °F 22.4 °F -2.0 °F 25% 30.08 in 10.0 mi North 8.1 mph - N/A   Clear
1:54 AM 32.0 °F 24.2 °F -0.9 °F 24% 30.08 in 10.0 mi North 9.2 mph - N/A   Clear
2:54 AM 30.9 °F 20.7 °F -0.0 °F 27% 30.11 in 10.0 mi North 13.8 mph - N/A   Clear
3:54 AM 37.0 °F 28.9 °F -0.9 °F 20% 30.09 in 10.0 mi North 12.7 mph - N/A   Clear
4:54 AM 36.0 °F 26.7 °F -0.9 °F 21% 30.14 in 10.0 mi North 15.0 mph - N/A   Clear
5:54 AM 30.9 °F 20.7 °F -2.0 °F 24% 30.22 in 10.0 mi North 13.8 mph - N/A   Clear
6:54 AM 30.0 °F 19.5 °F -0.9 °F 27% 30.30 in 10.0 mi NNE 13.8 mph - N/A   Clear
7:54 AM 33.1 °F 23.9 °F -0.9 °F 23% 30.32 in 10.0 mi NNE 12.7 mph - N/A   Clear
8:54 AM 43.0 °F 40.3 °F 1.0 °F 17% 30.30 in 10.0 mi North 4.6 mph - N/A   Clear
9:54 AM 50.0 °F - -2.9 °F 11% 30.31 in 10.0 mi WNW 5.8 mph - N/A   Clear
10:54 AM 52.0 °F - -2.0 °F 11% 30.25 in 10.0 mi SW 9.2 mph - N/A   Clear
11:54 AM 52.0 °F - -2.0 °F 11% 30.22 in 10.0 mi South 11.5 mph 18.4 mph N/A   Clear
12:54 PM 53.1 °F - -2.9 °F 10% 30.22 in 10.0 mi South 13.8 mph - N/A   Clear
1:54 PM 54.0 °F - -2.0 °F 10% 30.20 in 10.0 mi SSE 13.8 mph 18.4 mph N/A   Clear
2:54 PM 53.1 °F - -2.0 °F 10% 30.20 in 10.0 mi SSE 13.8 mph - N/A   Clear
3:54 PM 51.1 °F - -0.9 °F 12% 30.19 in 10.0 mi SSE 15.0 mph - N/A   Clear
4:54 PM 43.0 °F 37.7 °F -0.9 °F 16% 30.23 in 10.0 mi SSE 9.2 mph - N/A   Clear
5:54 PM 42.1 °F 37.1 °F -0.0 °F 17% 30.28 in 10.0 mi SSE 8.1 mph - N/A   Clear
6:54 PM 39.9 °F 35.8 °F -0.0 °F 19% 30.30 in 10.0 mi South 5.8 mph - N/A   Clear
7:54 PM 37.9 °F - 1.0 °F 21% 30.30 in 10.0 mi Calm Calm - N/A   Clear
8:54 PM 33.1 °F - 1.0 °F 26% 30.27 in 10.0 mi Calm Calm - N/A   Clear
9:54 PM 30.0 °F 25.2 °F 1.0 °F 29% 30.24 in 10.0 mi NE 4.6 mph - N/A   Clear
10:54 PM 28.0 °F 21.7 °F 1.0 °F 31% 30.21 in 10.0 mi NNE 5.8 mph - N/A   Clear
11:54 PM 28.0 °F 19.3 °F 1.9 °F 33% 30.19 in 10.0 mi NNE 9.2 mph - N/A   Clear